User: anonymous   Login
Location: Sherrills_Ford_Terrell
(35.6000°N, 80.9830°W)
Time: 01:06:22
(UTC-04:00)
Language:

CZ-4B R/B - Orbit

View from above orbital plane
View from above orbital plane
View from above satellite
View from above satellite

Ground track
Ground track

The orbit data is extracted from the following two-line orbital elements,

1 29093U 06015B   15143.20009988  .00007096  00000-0  21469-3 0  9992
2 29093 097.4938 229.9699 0079982 140.6316 250.5495 15.31348574501475
Epoch (UTC): 23 May 2015 04:48:08
Eccentricity: 0.0079982
inclination: 97.4938°
perigee height: 417 km
apogee height: 526 km
right ascension of ascending node: 229.9699°
argument of perigee: 140.6316°
revolutions per day: 15.31348574
mean anomaly at epoch: 250.5495°
orbit number at epoch: 50147

The dashed part of the orbit path shows where the satellite is in the earth's shadow,  

DLR